Regional Weather Roundup
Issued by NWS

Home | Current Version | Previous Version | Graphics & Text | Print | Product List | Glossary On
Versions: 1 2 3 4 5 6 7 8 9 10 11 12 13 14 15 16 17 18 19 20 21 22 23 24 25 26 27 28 29 30 31 32 33 34 35 36 37 38 39 40 41 42 43 44 45 46 47 48 49 50
000
ASUS45 KABQ 300501
RWRNM
WEATHER ROUNDUP FOR NEW MEXICO
NATIONAL WEATHER SERVICE ALBUQUERQUE NM
1000 PM MST THU JAN 29 2015

NOTE: "FAIR" MEANS FEW OR NO CLOUDS BELOW 12,000 FEET AGL WITH NO
       SIGNIFICANT WEATHER OR OBSTRUCTIONS TO VISION.

      THIS PRODUCT IS RELEASED AS TWO VERSIONS.  ONE VERSION NEAR
      THE TOP OF THE HOUR CONTAINING PRELIMINARY DATA FROM ALBUQUERQUE
      AND OTHER STATIONS.  A FINAL VERSION WITH ADDITIONAL DATA IS
      ISSUED ABOUT 10 MINUTES AFTER THE HOUR.

NMZ501-503-504-510>518-300600-
NORTHWEST PLATEAU/NORTHCENTRAL MOUNTAINS

CITY           SKY/WX    TMP DP  RH WIND       PRES   REMARKS
FARMINGTON     CLOUDY    44  27  51 SE9       30.31S
SANTA FE       CLOUDY    38  15  39 SE12      30.44S WCI  30
TAOS           CLOUDY    36  25  64 CALM      30.43S

$$
NMZ402-403-502-505>509-300600-
WESTCENTRAL MOUNTAINS/SOUTHWEST MOUNTAINS

CITY           SKY/WX    TMP DP  RH WIND       PRES   REMARKS
GALLUP         CLOUDY    42  27  55 NE3       30.28S
SILVER CITY    LGT RAIN  41  39  93 SE9       30.34S

$$
NMZ407-409-411-412-300600-
SOUTHERN DESERTS

CITY           SKY/WX    TMP DP  RH WIND       PRES   REMARKS
DEMING         LGT RAIN  44  40  85 E14       30.32S
HOLLOMAN AFB   CLOUDY    49  37  63 N8        30.33S
ALAMOGORDO     CLOUDY    50  34  53 NW6       30.35F
T OR C         LGT RAIN  47  32  56 N7        30.34S

$$
NMZ519>523-300600-
CENTRAL VALLEYS/CENTRAL HIGHLANDS

CITY           SKY/WX    TMP DP  RH WIND       PRES   REMARKS
ALBUQUERQUE    CLOUDY    42  19  39 E23G32    30.40S
DOUBLE EAGLE   CLOUDY    40  19  43 E16G24    30.41F WCI  31
CLINES CORNERS CLOUDY    32  17  54 E13       30.43F WCI  22
BELEN          CLOUDY    46  25  43 CALM      30.38S
SOCORRO        NOT AVBL

$$
NMZ524>526-539-540-300600-
SOUTHCENTRAL MOUNTAINS

CITY           SKY/WX    TMP DP  RH WIND       PRES   REMARKS
RUIDOSO        NOT AVBL

$$
NMZ527>531-300600-
NORTHEAST HIGHLANDS/NORTHEAST PLAINS

CITY           SKY/WX    TMP DP  RH WIND       PRES   REMARKS
LAS VEGAS      CLOUDY    31  22  69 SW5       30.48F WCI  26
RATON          CLOUDY    33  25  72 SW5       30.46F WCI  29
CLAYTON        MOCLDY    39  25  57 SW5       30.48S

$$
NMZ532>537-300600-
EASTCENTRAL PLAINS

CITY           SKY/WX    TMP DP  RH WIND       PRES   REMARKS
TUCUMCARI      CLOUDY    40  31  70 W3        30.48F
CANNON AFB     CLOUDY    36  28  74 CALM      30.49R
CLOVIS AIRPORT CLOUDY    36  28  75 NE5       30.49R WCI  32

$$
NMZ028-029-538-300600-
SOUTHEAST PLAINS

CITY           SKY/WX    TMP DP  RH WIND       PRES   REMARKS
ROSWELL        CLOUDY    47  28  47 NE5       30.48S
ARTESIA        CLOUDY    48  28  46 SE6       30.50S
CARLSBAD       CLOUDY    50  28  42 E9        30.48R
HOBBS          CLOUDY    45  23  42 E13       30.49R


$$



USA.gov is the U.S. government's official web portal to all federal, state and local government web resources and services.